Weather History for Niagara Falls, NY

Change the Weather History Date:

Wednesday, August 13, 2014

  Actual Average Record
Temperature  
Mean Temperature 65 °F -  
Max Temperature 73 °F 78 °F 91 °F (2002)
Min Temperature 54 °F 58 °F 46 °F (2003)
Growing Degree Days 15 (Base 50)    
Moisture  
Dew Point 57 °F    
Average Humidity 75    
Maximum Humidity 93    
Minimum Humidity 61    
Precipitation  
Precipitation 0.00 in - - ()
Sea Level Pressure  
Sea Level Pressure 29.79 in    
Wind  
Wind Speed 12 mph (West)    
Max Wind Speed 22 mph    
Max Gust Speed 30 mph    
Visibility 10 miles    
Events      
Averages and records for this station are not official NWS values.
T = Trace of Precipitation, MM = Missing Value Source: NWS Daily Summary

Daily Weather History Graph

Daily Weather History Graph

Search for Another Location

Airport:

Trip Planner

Search our weather history database for the weather conditions in past years. The results will help you decide how hot, cold, wet, or windy it might be!

Date:

Astronomy

Aug. 13, 2014 Rise Set
Actual Time 6:19 AM EDT 8:21 PM EDT
Civil Twilight 5:48 AM EDT 8:52 PM EDT
Nautical Twilight 5:10 AM EDT 9:29 PM EDT
Astronomical Twilight 4:28 AM EDT 10:11 PM EDT
Moon 9:57 PM EDT (8/13) 9:52 AM EDT (8/13)
Length of Visible Light 15h 03m
Length of Day
14h 01m
Waning Gibbous, 88% of the Moon is Illuminated
Aug 13
Waning Gibbous
Aug 17
Last Quarter
Aug 25
New
Sep 2
First Quarter
Sep 8
Full

Hourly Weather History & Observations

Time (EDT) Temp. Dew Point Humidity Pressure Visibility Wind Dir Wind Speed Gust Speed Precip Events Conditions
12:53 AM 66.0 °F 64.0 °F 93% 29.70 in 10.0 mi SSW 9.2 mph - N/A   Clear
1:53 AM 66.9 °F 64.9 °F 93% 29.70 in 10.0 mi West 6.9 mph - N/A   Mostly Cloudy
2:08 AM 66.9 °F 64.0 °F 90% 29.72 in 9.0 mi WNW 15.0 mph - N/A   Overcast
2:11 AM 66.0 °F 63.0 °F 90% 29.72 in 8.0 mi WNW 10.4 mph - N/A   Overcast
2:21 AM 66.0 °F 62.1 °F 87% 29.73 in 9.0 mi WNW 10.4 mph - N/A   Mostly Cloudy
2:53 AM 64.9 °F 61.0 °F 87% 29.71 in 10.0 mi WNW 9.2 mph - N/A   Mostly Cloudy
3:14 AM 64.0 °F 61.0 °F 90% 29.74 in 10.0 mi WNW 8.1 mph - N/A   Partly Cloudy
3:53 AM 64.0 °F 60.1 °F 87% 29.73 in 10.0 mi West 5.8 mph - N/A   Mostly Cloudy
5:53 AM 62.1 °F 57.9 °F 86% 29.75 in 10.0 mi WSW 8.1 mph - N/A   Overcast
6:53 AM 62.1 °F 57.9 °F 86% 29.76 in 10.0 mi West 10.4 mph - N/A   Mostly Cloudy
8:42 AM 64.0 °F 57.9 °F 80% 29.80 in 10.0 mi West 11.5 mph - N/A   Overcast
9:09 AM 64.4 °F 57.2 °F 77% 29.80 in 10.0 mi West 13.8 mph - N/A   Overcast
9:53 AM 66.0 °F 57.0 °F 73% 29.80 in 10.0 mi West 11.5 mph - N/A   Mostly Cloudy
10:41 AM 66.9 °F 57.9 °F 73% 29.80 in 10.0 mi WSW 15.0 mph - N/A   Mostly Cloudy
10:53 AM 66.2 °F 57.2 °F 73% 29.80 in 10.0 mi WSW 16.1 mph - N/A   Mostly Cloudy
11:53 AM 70.0 °F 57.0 °F 63% 29.80 in 10.0 mi WSW 17.3 mph - N/A   Mostly Cloudy
12:21 PM 70.0 °F 57.9 °F 65% 29.80 in 10.0 mi West 18.4 mph 25.3 mph N/A   Mostly Cloudy
12:53 PM 70.0 °F 57.0 °F 63% 29.80 in 10.0 mi WSW 17.3 mph 26.5 mph N/A   Mostly Cloudy
1:53 PM 71.1 °F 57.0 °F 61% 29.79 in 10.0 mi WSW 20.7 mph 26.5 mph N/A   Mostly Cloudy
2:53 PM 71.1 °F 57.9 °F 63% 29.79 in 10.0 mi WSW 21.9 mph 27.6 mph N/A   Mostly Cloudy
3:53 PM 69.8 °F 57.2 °F 64% 29.80 in 10.0 mi West 20.7 mph 26.5 mph N/A   Mostly Cloudy
4:53 PM 69.1 °F 55.0 °F 61% 29.82 in 10.0 mi WNW 20.7 mph - N/A   Mostly Cloudy
5:53 PM 66.0 °F 54.0 °F 65% 29.84 in 10.0 mi WNW 19.6 mph - N/A   Mostly Cloudy
6:53 PM 64.9 °F 53.1 °F 65% 29.86 in 10.0 mi WNW 21.9 mph 29.9 mph N/A   Mostly Cloudy
7:53 PM 63.0 °F 50.0 °F 63% 29.88 in 10.0 mi WNW 13.8 mph 27.6 mph N/A   Mostly Cloudy
8:53 PM 62.1 °F 50.0 °F 65% 29.90 in 10.0 mi NNW 13.8 mph - N/A   Partly Cloudy
9:53 PM 59.0 °F 48.0 °F 67% 29.91 in 10.0 mi NNW 5.8 mph - N/A   Partly Cloudy
10:53 PM 54.0 °F 48.0 °F 80% 29.90 in 10.0 mi WSW 6.9 mph - N/A   Clear